GSAT-19

Last updated on Sun Apr 12 2026 00:02:54 GMT+0000 (Coordinated Universal Time)

1 42747U 17031A 26101.53013742 .00000127 00000+0 00000+0 0 9999 2 42747 0.0441 255.9140 0006875 142.5319 39.9866 1.00273432 32471
UTC large
Height (km)
Speed (km/s)
/
Latitude / Longitude
Inclination (degrees)
Orbital Period (minutes)
Azimuth
Elevation
Range (km)
Doppler Factor

Next 0 passes for location: London (51.5072 / 0.1276)

Sorry there are no passes over London.
GSAT-19